Regional Weather Roundup
Issued by NWS Jackson, KY

Home | Current Version | Previous Version | Graphics & Text | Print | Product List | Glossary On
Versions: 1 2 3 4 5 6 7 8 9 10 11 12 13 14 15 16 17 18 19 20 21 22 23 24 25 26 27 28 29 30 31 32 33 34 35 36 37 38 39 40 41 42 43 44 45 46 47 48 49 50
000
ASUS43 KJKL 242210
RWRJKL

EAST KENTUCKY HOURLY WEATHER ROUNDUP
NATIONAL WEATHER SERVICE JACKSON KY
500 PM EST FRI NOV 24 2017

NOTE: "FAIR" INDICATES FEW OR NO CLOUDS BELOW 12,000 FEET WITH
NO SIGNIFICANT WEATHER AND/OR OBSTRUCTIONS TO VISIBILITY.

* THESE REPORTS ARE NOT UNDER NWS QUALITY CONTROL AND MAY NOT
  REPORT WEATHER SUCH AS PRECIPITATION AND FOG.

KYZ079-080-083-085-087-088-110-112-115-119-120-242300
...EASTERN KENTUCKY...

CITY           SKY/WX    TMP DP  RH WIND       PRES   REMARKS
JACKSON        CLEAR     56  26  31 SW3       29.87F
LONDON         CLOUDY    58  30  34 S5        29.88F
SOMERSET*      CLEAR     55  32  41 W6        29.89F
MONTICELLO*    CLEAR     58  32  37 W15       29.90S
WILLIAMSBURG*  CLOUDY    59  36  41 S3        29.89S
MIDDLESBORO*   CLEAR     56  36  48 S7        29.91F
HARLAN APT*    CLEAR     55  30  38 CALM      29.91S
PIKE CO APT*     N/A     58  28  31 CALM      29.88S
BIG SANDY APT* CLEAR     58  27  30 CALM      29.88S
MOREHEAD APT*  CLEAR     55  19  24 S5        29.87S
$$

KYZ035-036-041-042-044-050-067-078-099-242300
...CENTRAL KENTUCKY...

CITY           SKY/WX    TMP DP  RH WIND       PRES   REMARKS
MT STERLING*   CLEAR     55  27  33 SW6       29.87F
FLEMING/MASON* CLEAR     53  26  34 S6        29.86S
DANVILLE*      CLEAR     54  25  32 SW7       29.88R
LEXINGTON      CLEAR     54  26  34 S8        29.85F
FRANKFORT      CLEAR     56  25  30 S12       29.83F
LOUISVILLE     PTCLDY    58  26  29 S12       29.82F
LEBANON*         N/A     55  25  30 CALM      29.85F
GLASGOW*       CLEAR     57  24  28 S3        29.87F
BOWLING GREEN  CLEAR     59  27  29 SW9       29.87F
$$

KYZ091>093-OHZ055-061-077-WVZ005-015-034-035-042-242300
...SOUTHERN OHIO/WEST VIRGINIA...

CITY           SKY/WX    TMP DP  RH WIND       PRES   REMARKS
COVINGTON      PTCLDY    53  28  38 S12       29.81S
COLUMBUS       PTCLDY    53  26  35 S9        29.81S
DAYTON         PTCLDY    51  28  41 S14       29.78F
WILMINGTON     CLEAR     50  30  46 S10       29.80F
HUNTINGTON     CLEAR     57  21  24 S7        29.86F
CHARLESTON     CLEAR     57  19  22 SW3       29.87F
PINEVILLE*     CLEAR     46  32  59 MISG      29.94S
BECKLEY        CLEAR     54  21  27 SW6       29.89F
BLUEFIELD      CLEAR     55  23  28 SW5       29.91S
LOGAN CO APT*    N/A     57  21  24 CALM      29.88F
$$

VAZ002-007-008-TNZ017-027-036-066-071-242300
...SOUTHWEST VIRGINIA/EAST TENNESSEE...

CITY           SKY/WX    TMP DP  RH WIND       PRES   REMARKS
WISE*          CLEAR     54  30  40 SW7       29.92S
JONESVILLE*      N/A     57  34  41 CALM      29.94S
ABINGDON*      CLEAR     57  23  27 W3        29.92S
BRISTOL        PTCLDY    55  30  38 W7        29.92S
MORRISTOWN*    CLEAR     55  37  50 SW3       29.92S
SEVIERVILLE*   CLEAR     57  41  54 NW5       29.92S
KNOXVILLE      PTCLDY    57  41  55 CALM      29.92S
LAFOLLETTE*    CLEAR     57  37  47 CALM      29.94F
OAK RIDGE      CLOUDY    57  38  48 SW3       29.93F
CROSSVILLE     CLEAR     56  36  47 S7        29.91S
NASHVILLE      CLOUDY    61  26  26 S9        29.89S
$$

...KEY TO REMARKS...
VSB - VISIBILITY IN MILES
WCI - WIND CHILL INDEX
HX  - HEAT INDEX

$$



USA.gov is the U.S. government's official web portal to all federal, state and local government web resources and services.